TimeMDT,TemperatureF,Dew PointF,Humidity,Sea Level PressureIn,VisibilityMPH,Wind Direction,Wind SpeedMPH,Gust SpeedMPH,PrecipitationIn,Events,Conditions,WindDirDegrees,DateUTC
12:56 AM,41.0,33.1,73,29.89,10.0,Calm,Calm,-,N/A,,Overcast,0,2013-10-11 06:56:00
1:56 AM,39.9,33.1,77,29.89,10.0,SSW,3.5,-,N/A,,Mostly Cloudy,200,2013-10-11 07:56:00
2:56 AM,39.9,33.1,77,29.91,10.0,South,3.5,-,N/A,,Overcast,180,2013-10-11 08:56:00
3:56 AM,37.9,34.0,86,29.92,10.0,Calm,Calm,-,N/A,,Overcast,0,2013-10-11 09:56:00
4:56 AM,39.9,33.1,77,29.95,10.0,Calm,Calm,-,N/A,,Overcast,0,2013-10-11 10:56:00
5:56 AM,37.9,34.0,86,29.97,10.0,WNW,3.5,-,N/A,,Overcast,300,2013-10-11 11:56:00
6:56 AM,39.0,32.0,76,29.99,10.0,WSW,6.9,-,N/A,,Overcast,250,2013-10-11 12:56:00
7:56 AM,34.0,28.0,79,30.02,10.0,NNW,3.5,-,N/A,,Mostly Cloudy,330,2013-10-11 13:56:00
8:56 AM,39.0,28.0,65,30.02,10.0,NNW,4.6,-,N/A,,Overcast,330,2013-10-11 14:56:00
9:56 AM,44.1,28.0,53,30.03,10.0,WNW,11.5,-,N/A,,Scattered Clouds,300,2013-10-11 15:56:00
10:56 AM,46.9,26.1,44,30.03,10.0,West,12.7,18.4,N/A,,Scattered Clouds,280,2013-10-11 16:56:00
11:56 AM,45.0,-9999,N/A,30.04,10.0,WNW,12.7,-,N/A,,Scattered Clouds,300,2013-10-11 17:56:00
12:56 PM,46.0,-9999,N/A,30.04,10.0,West,13.8,-,N/A,,Mostly Cloudy,280,2013-10-11 18:56:00
1:56 PM,48.0,24.1,39,30.03,9.0,WNW,10.4,-,N/A,,Mostly Cloudy,300,2013-10-11 19:56:00
2:56 PM,50.0,19.9,31,30.01,10.0,West,6.9,-,N/A,,Clear,270,2013-10-11 20:56:00
3:56 PM,50.0,19.0,29,30.02,10.0,West,5.8,16.1,N/A,,Clear,260,2013-10-11 21:56:00
4:56 PM,50.0,19.0,29,30.01,10.0,NW,4.6,-,N/A,,Clear,310,2013-10-11 22:56:00
5:56 PM,48.9,19.9,32,30.03,10.0,Calm,Calm,-,N/A,,Clear,0,2013-10-11 23:56:00
6:56 PM,43.0,21.9,43,30.05,10.0,East,3.5,-,N/A,,Clear,100,2013-10-12 00:56:00
7:56 PM,35.1,24.1,64,30.09,10.0,ESE,8.1,-,N/A,,Clear,120,2013-10-12 01:56:00
8:56 PM,30.9,24.1,76,30.10,10.0,SSE,10.4,-,N/A,,Clear,150,2013-10-12 02:56:00
9:56 PM,30.9,23.0,72,30.09,10.0,ENE,3.5,-,N/A,,Clear,60,2013-10-12 03:56:00
10:56 PM,30.0,21.9,72,30.09,10.0,SSE,6.9,-,N/A,,Clear,160,2013-10-12 04:56:00
11:56 PM,28.9,21.9,75,30.10,10.0,South,3.5,-,N/A,,Clear,170,2013-10-12 05:56:00